Weather History for Lee's Summit, MO

Change the Weather History Date:

Tuesday, March 25, 2014

  Actual Average (KMKC) Record (KMKC)
Temperature  
Mean Temperature 32 °F -  
Max Temperature 41 °F 57 °F 81 °F (2012)
Min Temperature 26 °F 37 °F 24 °F (2001)
Degree Days  
Heating Degree Days 32    
Moisture  
Dew Point 14 °F    
Average Humidity 53    
Maximum Humidity 92    
Minimum Humidity 23    
Precipitation  
Precipitation 0.00 in - - ()
Sea Level Pressure  
Sea Level Pressure 30.32 in    
Wind  
Wind Speed 8 mph (NW)    
Max Wind Speed 22 mph    
Max Gust Speed 33 mph    
Visibility 9 miles    
Events Snow    
Averages and records for this station are not official NWS values.
T = Trace of Precipitation, MM = Missing Value Source: NWS Daily Summary

Daily Weather History Graph

Daily Weather History Graph

Search for Another Location

Airport:

Trip Planner

Search our weather history database for the weather conditions in past years. The results will help you decide how hot, cold, wet, or windy it might be!

Date:

Astronomy

Mar. 25, 2014 Rise Set
Actual Time 7:13 AM CDT 7:34 PM CDT
Civil Twilight 6:46 AM CDT 8:01 PM CDT
Nautical Twilight 6:15 AM CDT 8:32 PM CDT
Astronomical Twilight 5:43 AM CDT 9:04 PM CDT
Moon 3:32 AM CDT (3/25) 2:08 PM CDT (3/25)
Length of Visible Light 13h 14m
Length of Day
12h 21m
Waning Crescent, 32% of the Moon is Illuminated
Mar 25
Waning Crescent
Mar 30
New
Apr 7
First Quarter
Apr 15
Full
Apr 22
Last Quarter

Hourly Weather History & Observations

Time (CDT) Temp. Windchill Dew Point Humidity Pressure Visibility Wind Dir Wind Speed Gust Speed Precip Events Conditions
12:53 AM 30.9 °F 26.2 °F 28.0 °F 89% 30.27 in 3.0 mi WSW 4.6 mph - 0.00 in Snow Light Snow
1:53 AM 28.9 °F 22.8 °F 27.0 °F 92% 30.27 in 2.5 mi WNW 5.8 mph - 0.00 in   Clear
2:12 AM 28.9 °F 22.8 °F 26.1 °F 89% 30.25 in 3.0 mi WNW 5.8 mph - N/A   Clear
2:53 AM 28.9 °F 23.9 °F 26.1 °F 89% 30.27 in 5.0 mi NW 4.6 mph - N/A   Clear
3:53 AM 27.0 °F 20.5 °F 24.1 °F 89% 30.26 in 8.0 mi WNW 5.8 mph - N/A   Clear
4:53 AM 26.1 °F 20.5 °F 21.9 °F 84% 30.28 in 9.0 mi West 4.6 mph - N/A   Mostly Cloudy
5:53 AM 28.0 °F 20.0 °F 21.0 °F 75% 30.31 in 10.0 mi NW 8.1 mph - N/A   Overcast
6:53 AM 27.0 °F 18.0 °F 19.0 °F 72% 30.34 in 10.0 mi NNW 9.2 mph - N/A   Scattered Clouds
7:53 AM 27.0 °F 16.7 °F 19.0 °F 72% 30.37 in 10.0 mi NNW 11.5 mph - N/A   Clear
8:53 AM 28.9 °F 18.6 °F 19.9 °F 69% 30.39 in 10.0 mi NW 12.7 mph 20.7 mph N/A   Clear
9:53 AM 30.9 °F 18.1 °F 18.0 °F 59% 30.40 in 10.0 mi North 21.9 mph 27.6 mph N/A   Clear
10:53 AM 33.1 °F 21.9 °F 16.0 °F 50% 30.41 in 10.0 mi NNW 18.4 mph 33.4 mph N/A   Partly Cloudy
11:53 AM 35.1 °F 24.8 °F 14.0 °F 42% 30.41 in 10.0 mi NNW 17.3 mph 25.3 mph N/A   Clear
12:53 PM 37.0 °F 26.4 °F 10.0 °F 33% 30.41 in 10.0 mi NW 20.7 mph 26.5 mph N/A   Clear
1:53 PM 39.0 °F 29.3 °F 9.0 °F 29% 30.38 in 10.0 mi WNW 19.6 mph 26.5 mph N/A   Clear
2:53 PM 39.9 °F 31.1 °F 7.0 °F 26% 30.35 in 10.0 mi WNW 17.3 mph 23.0 mph N/A   Clear
3:53 PM 39.9 °F 31.8 °F 6.1 °F 25% 30.33 in 10.0 mi NW 15.0 mph - N/A   Clear
4:53 PM 39.9 °F 34.5 °F 6.1 °F 25% 30.31 in 10.0 mi NW 8.1 mph - N/A   Clear
5:53 PM 39.9 °F 33.4 °F 5.0 °F 23% 30.30 in 10.0 mi NW 10.4 mph - N/A   Clear
6:53 PM 37.9 °F 31.5 °F 6.1 °F 27% 30.28 in 10.0 mi NW 9.2 mph - N/A   Clear
7:53 PM 36.0 °F - 5.0 °F 27% 30.28 in 10.0 mi Calm Calm - N/A   Clear
8:53 PM 36.0 °F - 5.0 °F 27% 30.27 in 10.0 mi Calm Calm - N/A   Clear
9:53 PM 35.1 °F - 5.0 °F 28% 30.29 in 10.0 mi Calm Calm - N/A   Clear
10:53 PM 33.1 °F 27.7 °F 8.1 °F 35% 30.28 in 10.0 mi SE 5.8 mph - N/A   Clear
11:53 PM 32.0 °F 27.5 °F 8.1 °F 37% 30.27 in 10.0 mi SSE 4.6 mph - N/A   Clear